CSZ9520 ZSPD-ZGSZ

Flight info

Callsign CSZ9520
Flight time 2h 8m
Altitude 36100
Route NXD W131 AKDIM A470 DUBGO W134 ELNEX A599 PLT W19 ATKAV W20 SALIV R473 NOLON W90 POU W7 SAREX
Aircraft A320/M-SDE3FGHIRWY/LB1

Departure

Time 2026-04-11 07:32
Airport Shanghai Pudong International Airport (ZSPD)

Arrival

Time 2026-04-11 09:40
Airport Shenzhen Bao'an International Airport (ZGSZ)
Time Latitude Longitude Altitude Speed Heading
2026-04-11 07:14 31.15952 121.80496 23 ft 0 kts 252°
2026-04-11 07:25 31.15954 121.80500 25 ft 2 kts 251°
2026-04-11 07:25 31.15959 121.80518 23 ft 2 kts 251°
2026-04-11 07:25 31.15964 121.80537 26 ft 2 kts 251°
2026-04-11 07:26 31.15969 121.80555 25 ft 2 kts 252°
2026-04-11 07:26 31.15974 121.80574 25 ft 2 kts 226°
2026-04-11 07:26 31.15987 121.80586 27 ft 2 kts 202°
2026-04-11 07:26 31.16002 121.80591 25 ft 2 kts 182°
2026-04-11 07:27 31.16008 121.80591 25 ft 0 kts 161°
2026-04-11 07:27 31.16003 121.80593 23 ft 2 kts 162°
2026-04-11 07:28 31.15973 121.80604 23 ft 6 kts 162°
2026-04-11 07:28 31.15914 121.80626 24 ft 11 kts 162°
2026-04-11 07:28 31.15851 121.80649 23 ft 8 kts 162°
2026-04-11 07:28 31.15798 121.80669 24 ft 8 kts 162°
2026-04-11 07:29 31.15760 121.80714 24 ft 9 kts 99°
2026-04-11 07:29 31.15777 121.80794 25 ft 12 kts 72°
2026-04-11 07:29 31.15805 121.80896 23 ft 14 kts 72°
2026-04-11 07:29 31.15834 121.81002 22 ft 13 kts 71°
2026-04-11 07:30 31.15851 121.81060 22 ft 5 kts 72°
2026-04-11 07:30 31.15858 121.81085 24 ft 3 kts 72°
2026-04-11 07:30 31.15869 121.81124 22 ft 7 kts 72°
2026-04-11 07:30 31.15880 121.81164 22 ft 4 kts 72°
2026-04-11 07:31 31.15862 121.81193 23 ft 7 kts 156°
2026-04-11 07:31 31.15804 121.81216 22 ft 12 kts 161°
2026-04-11 07:31 31.15525 121.81324 24 ft 77 kts 162°
2026-04-11 07:31 31.14822 121.81589 22 ft 134 kts 163°
2026-04-11 07:32 31.13807 121.81965 242 ft 161 kts 160°
2026-04-11 07:32 31.12744 121.82356 1037 ft 157 kts 159°
2026-04-11 07:32 31.11714 121.82744 1820 ft 157 kts 159°
2026-04-11 07:32 31.10621 121.83105 2316 ft 173 kts 171°
2026-04-11 07:33 31.09363 121.83149 2780 ft 187 kts 172°
2026-04-11 07:33 31.08010 121.83284 3201 ft 203 kts 170°
2026-04-11 07:33 31.06542 121.83471 3585 ft 223 kts 169°
2026-04-11 07:33 31.04938 121.83679 4104 ft 240 kts 169°
2026-04-11 07:34 31.03214 121.83901 4657 ft 258 kts 169°
2026-04-11 07:34 31.01375 121.84065 5325 ft 272 kts 180°
2026-04-11 07:34 30.99545 121.83367 5801 ft 286 kts 212°
2026-04-11 07:34 30.98228 121.81641 5916 ft 290 kts 241°
2026-04-11 07:35 30.97483 121.79447 5915 ft 291 kts 253°
2026-04-11 07:35 30.97004 121.77152 5921 ft 292 kts 257°
2026-04-11 07:35 30.96580 121.74843 5915 ft 292 kts 257°
2026-04-11 07:35 30.96241 121.72513 5910 ft 292 kts 269°
2026-04-11 07:36 30.96447 121.70178 6054 ft 290 kts 285°
2026-04-11 07:36 30.96947 121.67894 6737 ft 293 kts 284°
2026-04-11 07:36 30.97394 121.65569 7580 ft 296 kts 282°
2026-04-11 07:36 30.97816 121.63210 8439 ft 297 kts 281°
2026-04-11 07:37 30.98223 121.60874 9327 ft 298 kts 280°
2026-04-11 07:37 30.98639 121.58507 10178 ft 300 kts 279°
2026-04-11 07:37 30.99078 121.56034 10634 ft 316 kts 279°
2026-04-11 07:37 30.99534 121.53491 11009 ft 333 kts 279°
2026-04-11 07:38 31.00023 121.50776 11358 ft 350 kts 279°
2026-04-11 07:38 31.00543 121.47934 11666 ft 367 kts 279°
2026-04-11 07:38 31.01092 121.44961 11929 ft 383 kts 279°
2026-04-11 07:38 31.01667 121.41865 12147 ft 399 kts 280°
2026-04-11 07:39 31.02265 121.38648 12525 ft 409 kts 279°
2026-04-11 07:39 31.02870 121.35392 13127 ft 413 kts 279°
2026-04-11 07:39 31.03443 121.32294 13716 ft 415 kts 279°
2026-04-11 07:39 31.04048 121.28999 14238 ft 417 kts 278°
2026-04-11 07:40 31.04653 121.25685 14757 ft 419 kts 278°
2026-04-11 07:40 31.05257 121.22361 15266 ft 420 kts 278°
2026-04-11 07:40 31.05864 121.19014 15759 ft 422 kts 278°
2026-04-11 07:40 31.06405 121.15656 16218 ft 421 kts 272°
2026-04-11 07:41 31.06505 121.12261 16672 ft 417 kts 263°
2026-04-11 07:41 31.06104 121.08928 17118 ft 414 kts 253°
2026-04-11 07:41 31.05329 121.05708 17550 ft 414 kts 250°
2026-04-11 07:41 31.04525 121.02481 17965 ft 415 kts 250°
2026-04-11 07:42 31.03723 120.99250 18344 ft 416 kts 251°
2026-04-11 07:42 31.02923 120.96001 18673 ft 417 kts 251°
2026-04-11 07:42 31.02125 120.92755 18990 ft 417 kts 251°
2026-04-11 07:43 31.00508 120.86233 19636 ft 419 kts 251°
2026-04-11 07:43 30.99694 120.82973 19940 ft 419 kts 252°
2026-04-11 07:43 30.98881 120.79712 20241 ft 420 kts 252°
2026-04-11 07:43 30.98065 120.76443 20514 ft 421 kts 252°
2026-04-11 07:44 30.97244 120.73170 20784 ft 422 kts 252°
2026-04-11 07:44 30.96421 120.69887 21041 ft 422 kts 252°
2026-04-11 07:44 30.95610 120.66645 21272 ft 423 kts 253°
2026-04-11 07:44 30.94788 120.63349 21513 ft 424 kts 253°
2026-04-11 07:45 30.93962 120.60044 21738 ft 425 kts 253°
2026-04-11 07:45 30.93135 120.56743 21951 ft 425 kts 253°
2026-04-11 07:45 30.92304 120.53434 22171 ft 426 kts 253°
2026-04-11 07:45 30.91468 120.50122 22364 ft 427 kts 253°
2026-04-11 07:46 30.90462 120.46868 22558 ft 427 kts 245°
2026-04-11 07:46 30.88987 120.43862 22742 ft 429 kts 236°
2026-04-11 07:46 30.87065 120.41195 22909 ft 433 kts 227°
2026-04-11 07:46 30.84740 120.38935 23069 ft 439 kts 219°
2026-04-11 07:47 30.82241 120.36881 23215 ft 440 kts 219°
2026-04-11 07:47 30.79738 120.34821 23336 ft 441 kts 219°
2026-04-11 07:47 30.77235 120.32761 23458 ft 442 kts 219°
2026-04-11 07:47 30.74724 120.30695 23584 ft 442 kts 219°
2026-04-11 07:48 30.72221 120.28641 23823 ft 439 kts 219°
2026-04-11 07:48 30.69729 120.26597 24085 ft 437 kts 219°
2026-04-11 07:48 30.67252 120.24567 24344 ft 435 kts 219°
2026-04-11 07:48 30.64790 120.22551 24605 ft 433 kts 220°
2026-04-11 07:49 30.62330 120.20538 24875 ft 431 kts 220°
2026-04-11 07:49 30.59888 120.18536 25143 ft 429 kts 220°
2026-04-11 07:49 30.57457 120.16543 25418 ft 427 kts 220°
2026-04-11 07:49 30.55036 120.14561 25687 ft 426 kts 220°
2026-04-11 07:50 30.52621 120.12583 25964 ft 424 kts 220°
2026-04-11 07:50 30.50217 120.10616 26246 ft 422 kts 221°
2026-04-11 07:50 30.47821 120.08661 26522 ft 421 kts 221°
2026-04-11 07:50 30.45429 120.06712 26816 ft 419 kts 221°
2026-04-11 07:51 30.43045 120.04847 27103 ft 421 kts 217°
2026-04-11 07:51 30.40511 120.03152 27403 ft 420 kts 217°
2026-04-11 07:51 30.37979 120.01465 27688 ft 419 kts 217°
2026-04-11 07:51 30.35459 119.99785 27984 ft 417 kts 217°
2026-04-11 07:52 30.32944 119.98110 28289 ft 416 kts 217°
2026-04-11 07:52 30.30468 119.96463 28589 ft 414 kts 218°
2026-04-11 07:52 30.27972 119.94805 28899 ft 413 kts 218°
2026-04-11 07:52 30.25485 119.93153 29209 ft 412 kts 218°
2026-04-11 07:53 30.22976 119.91483 29537 ft 410 kts 218°
2026-04-11 07:53 30.20404 119.89774 29861 ft 408 kts 218°
2026-04-11 07:53 30.17948 119.88142 30142 ft 406 kts 218°
2026-04-11 07:53 30.15505 119.86521 30406 ft 404 kts 218°
2026-04-11 07:54 30.13071 119.84911 30689 ft 403 kts 218°
2026-04-11 07:54 30.10644 119.83305 30962 ft 402 kts 219°
2026-04-11 07:54 30.08218 119.81698 31236 ft 401 kts 219°
2026-04-11 07:54 30.05802 119.80100 31519 ft 400 kts 218°
2026-04-11 07:55 30.03393 119.78499 31799 ft 398 kts 219°
2026-04-11 07:55 30.00999 119.76889 32087 ft 398 kts 219°
2026-04-11 07:55 29.98617 119.75281 32374 ft 397 kts 219°
2026-04-11 07:55 29.96235 119.73674 32668 ft 396 kts 219°
2026-04-11 07:56 29.93861 119.72075 32963 ft 394 kts 220°
2026-04-11 07:56 29.91496 119.70487 33263 ft 393 kts 219°
2026-04-11 07:56 29.89134 119.68903 33568 ft 392 kts 220°
2026-04-11 07:56 29.86780 119.67325 33862 ft 391 kts 219°
2026-04-11 07:57 29.84450 119.65727 34133 ft 388 kts 221°
2026-04-11 07:57 29.82191 119.64047 34397 ft 384 kts 223°
2026-04-11 07:57 29.79992 119.62318 34670 ft 382 kts 224°
2026-04-11 07:57 29.77824 119.60568 34941 ft 380 kts 224°
2026-04-11 07:58 29.75663 119.58817 35214 ft 380 kts 224°
2026-04-11 07:58 29.73497 119.57080 35492 ft 378 kts 223°
2026-04-11 07:58 29.71336 119.55369 35773 ft 376 kts 223°
2026-04-11 07:58 29.69202 119.53694 35910 ft 378 kts 223°
2026-04-11 07:59 29.67013 119.51982 35938 ft 382 kts 223°
2026-04-11 07:59 29.62704 119.48326 35939 ft 386 kts 231°
2026-04-11 08:00 29.59022 119.43717 35925 ft 394 kts 234°
2026-04-11 08:00 29.55311 119.38979 35931 ft 400 kts 234°
2026-04-11 08:01 29.51610 119.34272 35923 ft 395 kts 234°
2026-04-11 08:01 29.47926 119.29593 35922 ft 395 kts 234°
2026-04-11 08:02 29.44874 119.25706 35924 ft 394 kts 234°
2026-04-11 08:02 29.40594 119.20274 35917 ft 394 kts 233°
2026-04-11 08:03 29.36909 119.15605 35908 ft 395 kts 233°
2026-04-11 08:03 29.33216 119.10937 35912 ft 396 kts 233°
2026-04-11 08:04 29.30104 119.07009 35913 ft 398 kts 233°
2026-04-11 08:04 29.26376 119.02309 35915 ft 400 kts 233°
2026-04-11 08:05 29.22630 118.97592 36064 ft 398 kts 229°
2026-04-11 08:05 29.20857 118.95388 37997 ft 356 kts 233°
2026-04-11 08:05 29.19252 118.93453 39736 ft 314 kts 233°
2026-04-11 08:05 29.17818 118.91804 41157 ft 274 kts 233°
2026-04-11 08:06 29.16476 118.90306 41315 ft 273 kts 233°
2026-04-11 08:06 29.15049 118.88686 39993 ft 306 kts 232°
2026-04-11 08:06 29.13478 118.86889 39039 ft 330 kts 232°
2026-04-11 08:06 29.11822 118.85006 38684 ft 343 kts 231°
2026-04-11 08:07 29.10090 118.82999 37842 ft 362 kts 233°
2026-04-11 08:07 29.08452 118.80765 36824 ft 373 kts 237°
2026-04-11 08:07 29.06840 118.78352 36180 ft 389 kts 237°
2026-04-11 08:08 29.03407 118.73432 35875 ft 399 kts 234°
2026-04-11 08:08 29.01573 118.71034 35895 ft 401 kts 232°
2026-04-11 08:08 28.97784 118.66345 35892 ft 402 kts 232°
2026-04-11 08:09 28.93962 118.61678 35887 ft 402 kts 232°
2026-04-11 08:09 28.90190 118.57017 35884 ft 402 kts 232°
2026-04-11 08:10 28.86408 118.52289 35874 ft 403 kts 232°
2026-04-11 08:10 28.82620 118.47561 35867 ft 404 kts 232°
2026-04-11 08:11 28.78805 118.42832 35869 ft 405 kts 232°
2026-04-11 08:11 28.74981 118.38107 35867 ft 406 kts 232°
2026-04-11 08:12 28.71153 118.33363 35867 ft 407 kts 232°
2026-04-11 08:12 28.67318 118.28606 35869 ft 408 kts 232°
2026-04-11 08:13 28.63478 118.23851 35868 ft 408 kts 232°
2026-04-11 08:13 28.59626 118.19099 35873 ft 408 kts 232°
2026-04-11 08:14 28.55772 118.14346 35873 ft 409 kts 231°
2026-04-11 08:14 28.51913 118.09592 35876 ft 409 kts 231°
2026-04-11 08:15 28.48048 118.04848 35876 ft 409 kts 231°
2026-04-11 08:15 28.44206 118.00129 35878 ft 410 kts 231°
2026-04-11 08:16 28.40330 117.95375 35882 ft 410 kts 231°
2026-04-11 08:16 28.36383 117.90678 35877 ft 411 kts 230°
2026-04-11 08:17 28.32399 117.86026 35885 ft 411 kts 230°
2026-04-11 08:17 28.28417 117.81360 35883 ft 411 kts 230°
2026-04-11 08:18 28.24447 117.76683 35886 ft 411 kts 230°
2026-04-11 08:18 28.20484 117.72007 35887 ft 412 kts 230°
2026-04-11 08:19 28.16529 117.67354 35884 ft 412 kts 231°
2026-04-11 08:19 28.12541 117.62672 35882 ft 412 kts 231°
2026-04-11 08:20 28.08564 117.57998 35884 ft 412 kts 230°
2026-04-11 08:20 28.04578 117.53324 35883 ft 413 kts 230°
2026-04-11 08:21 28.00578 117.48647 35888 ft 413 kts 230°
2026-04-11 08:21 27.96585 117.43981 35880 ft 413 kts 230°
2026-04-11 08:22 27.92589 117.39322 35868 ft 410 kts 230°
2026-04-11 08:22 27.88605 117.34683 35854 ft 412 kts 230°
2026-04-11 08:23 27.84633 117.30057 35867 ft 412 kts 230°
2026-04-11 08:23 27.80641 117.25406 35874 ft 412 kts 230°
2026-04-11 08:24 27.76648 117.20757 35871 ft 412 kts 230°
2026-04-11 08:24 27.72644 117.16107 35876 ft 414 kts 230°
2026-04-11 08:25 27.68625 117.11445 35875 ft 414 kts 230°
2026-04-11 08:25 27.64610 117.06791 35882 ft 413 kts 230°
2026-04-11 08:26 27.60600 117.02136 35876 ft 414 kts 230°
2026-04-11 08:26 27.56585 116.97486 35871 ft 414 kts 230°
2026-04-11 08:27 27.52555 116.92843 35861 ft 414 kts 230°
2026-04-11 08:27 27.48539 116.88189 35854 ft 414 kts 230°
2026-04-11 08:28 27.44555 116.83517 35852 ft 414 kts 230°
2026-04-11 08:28 27.40566 116.78836 35842 ft 414 kts 230°
2026-04-11 08:29 27.36569 116.74156 35839 ft 414 kts 230°
2026-04-11 08:29 27.32592 116.69519 35834 ft 414 kts 230°
2026-04-11 08:30 27.28583 116.64852 35824 ft 414 kts 230°
2026-04-11 08:30 27.24572 116.60189 35820 ft 415 kts 230°
2026-04-11 08:31 27.20551 116.55524 35818 ft 416 kts 230°
2026-04-11 08:31 27.16595 116.50788 35819 ft 416 kts 231°
2026-04-11 08:32 27.12686 116.45994 35823 ft 416 kts 231°
2026-04-11 08:32 27.08765 116.41219 35831 ft 416 kts 231°
2026-04-11 08:33 27.04817 116.36447 35840 ft 417 kts 231°
2026-04-11 08:33 27.00864 116.31688 35834 ft 417 kts 231°
2026-04-11 08:34 26.96911 116.26922 35835 ft 417 kts 231°
2026-04-11 08:34 26.92953 116.22154 35842 ft 418 kts 231°
2026-04-11 08:35 26.89026 116.17405 35834 ft 418 kts 231°
2026-04-11 08:35 26.85096 116.12610 35848 ft 418 kts 231°
2026-04-11 08:36 26.81168 116.07817 35833 ft 418 kts 231°
2026-04-11 08:36 26.77237 116.03032 35838 ft 418 kts 231°
2026-04-11 08:37 26.73297 115.98244 35838 ft 418 kts 231°
2026-04-11 08:37 26.69354 115.93455 35836 ft 419 kts 231°
2026-04-11 08:38 26.65399 115.88673 35844 ft 419 kts 231°
2026-04-11 08:38 26.61442 115.83886 35849 ft 419 kts 231°
2026-04-11 08:39 26.57480 115.79100 35846 ft 420 kts 231°
2026-04-11 08:39 26.53509 115.74316 35847 ft 420 kts 231°
2026-04-11 08:40 26.49540 115.69529 35849 ft 420 kts 231°
2026-04-11 08:40 26.45556 115.64734 35847 ft 422 kts 230°
2026-04-11 08:41 26.41565 115.59926 35844 ft 422 kts 231°
2026-04-11 08:41 26.37572 115.55125 35848 ft 422 kts 230°
2026-04-11 08:42 26.33577 115.50330 35842 ft 422 kts 230°
2026-04-11 08:43 26.27600 115.43173 35841 ft 422 kts 230°
2026-04-11 08:43 26.23600 115.38380 35837 ft 422 kts 230°
2026-04-11 08:44 26.19593 115.33589 35826 ft 422 kts 230°
2026-04-11 08:44 26.15583 115.28797 35824 ft 423 kts 230°
2026-04-11 08:45 26.11569 115.24010 35824 ft 423 kts 230°
2026-04-11 08:45 26.07549 115.19221 35821 ft 424 kts 230°
2026-04-11 08:46 26.03519 115.14419 35825 ft 424 kts 230°
2026-04-11 08:46 25.99485 115.09624 35826 ft 425 kts 230°
2026-04-11 08:47 25.95474 115.04863 35826 ft 425 kts 230°
2026-04-11 08:47 25.91434 115.00067 35830 ft 425 kts 230°
2026-04-11 08:48 25.87391 114.95267 35836 ft 425 kts 230°
2026-04-11 08:48 25.83297 114.90508 35840 ft 427 kts 225°
2026-04-11 08:49 25.78206 114.87031 35830 ft 439 kts 205°
2026-04-11 08:49 25.72209 114.85355 35827 ft 446 kts 198°
2026-04-11 08:50 25.66191 114.83870 35835 ft 446 kts 198°
2026-04-11 08:50 25.60126 114.82359 35842 ft 446 kts 198°
2026-04-11 08:51 25.54061 114.80852 35842 ft 446 kts 198°
2026-04-11 08:51 25.48002 114.79343 35843 ft 446 kts 198°
2026-04-11 08:52 25.38909 114.77105 35837 ft 446 kts 198°
2026-04-11 08:52 25.32880 114.75616 35844 ft 447 kts 198°
2026-04-11 08:53 25.26805 114.74116 35854 ft 447 kts 198°
2026-04-11 08:53 25.20733 114.72612 35852 ft 447 kts 198°
2026-04-11 08:54 25.14663 114.71116 35855 ft 448 kts 198°
2026-04-11 08:54 25.08578 114.69627 35861 ft 448 kts 197°
2026-04-11 08:55 25.02498 114.68141 35862 ft 447 kts 197°
2026-04-11 08:55 24.97441 114.66895 35867 ft 448 kts 197°
2026-04-11 08:56 24.91363 114.65396 35864 ft 447 kts 198°
2026-04-11 08:56 24.85281 114.63903 35864 ft 449 kts 197°
2026-04-11 08:57 24.79185 114.62407 35871 ft 444 kts 197°
2026-04-11 08:57 24.76201 114.61678 35768 ft 437 kts 197°
2026-04-11 08:57 24.73234 114.60950 35424 ft 436 kts 197°
2026-04-11 08:58 24.70320 114.60020 35068 ft 434 kts 205°
2026-04-11 08:58 24.67598 114.58622 34718 ft 431 kts 213°
2026-04-11 08:58 24.65033 114.56989 34374 ft 432 kts 213°
2026-04-11 08:58 24.62437 114.55340 34036 ft 433 kts 213°
2026-04-11 08:59 24.59820 114.53686 33699 ft 435 kts 213°
2026-04-11 08:59 24.57190 114.52030 33314 ft 436 kts 213°
2026-04-11 08:59 24.54548 114.50371 32933 ft 437 kts 213°
2026-04-11 08:59 24.51906 114.48710 32559 ft 438 kts 213°
2026-04-11 09:00 24.49261 114.47045 32191 ft 438 kts 213°
2026-04-11 09:00 24.46641 114.45393 31820 ft 429 kts 214°
2026-04-11 09:00 24.44217 114.43540 31463 ft 424 kts 223°
2026-04-11 09:00 24.42093 114.41308 31107 ft 422 kts 230°
2026-04-11 09:01 24.40306 114.38749 30762 ft 421 kts 238°
2026-04-11 09:01 24.38886 114.35940 30408 ft 421 kts 246°
2026-04-11 09:01 24.37774 114.32977 30069 ft 420 kts 249°
2026-04-11 09:01 24.36686 114.30006 29709 ft 420 kts 248°
2026-04-11 09:02 24.35594 114.27031 29311 ft 421 kts 248°
2026-04-11 09:02 24.34500 114.24050 28911 ft 421 kts 248°
2026-04-11 09:02 24.33407 114.21072 28532 ft 421 kts 248°
2026-04-11 09:02 24.32327 114.18132 28157 ft 421 kts 248°
2026-04-11 09:03 24.31227 114.15149 27777 ft 422 kts 248°
2026-04-11 09:03 24.30109 114.12172 27407 ft 423 kts 246°
2026-04-11 09:03 24.28698 114.09351 27049 ft 424 kts 238°
2026-04-11 09:03 24.26900 114.06772 26676 ft 427 kts 230°
2026-04-11 09:04 24.24762 114.04514 26316 ft 430 kts 222°
2026-04-11 09:04 24.22346 114.02627 25980 ft 421 kts 216°
2026-04-11 09:04 24.19911 114.00952 25699 ft 406 kts 216°
2026-04-11 09:04 24.17560 113.99329 25421 ft 393 kts 216°
2026-04-11 09:05 24.15279 113.97749 25151 ft 385 kts 217°
2026-04-11 09:05 24.13020 113.96176 24873 ft 383 kts 217°
2026-04-11 09:05 24.10827 113.94545 24613 ft 379 kts 221°
2026-04-11 09:05 24.08837 113.92680 24346 ft 375 kts 226°
2026-04-11 09:06 24.06906 113.90765 24086 ft 373 kts 225°
2026-04-11 09:06 24.04981 113.88866 23831 ft 372 kts 225°
2026-04-11 09:06 24.03063 113.86980 23562 ft 370 kts 225°
2026-04-11 09:06 24.01152 113.85103 23297 ft 368 kts 225°
2026-04-11 09:07 23.99246 113.83237 22981 ft 366 kts 225°
2026-04-11 09:07 23.97356 113.81387 22681 ft 364 kts 225°
2026-04-11 09:07 23.95499 113.79566 22376 ft 363 kts 225°
2026-04-11 09:07 23.93630 113.77732 22082 ft 360 kts 225°
2026-04-11 09:08 23.91766 113.75902 21779 ft 358 kts 225°
2026-04-11 09:08 23.89916 113.74088 21481 ft 356 kts 225°
2026-04-11 09:08 23.88075 113.72287 21189 ft 354 kts 225°
2026-04-11 09:08 23.86246 113.70496 20892 ft 352 kts 225°
2026-04-11 09:09 23.84425 113.68712 20616 ft 351 kts 225°
2026-04-11 09:09 23.82613 113.66933 20328 ft 349 kts 225°
2026-04-11 09:09 23.80808 113.65158 20043 ft 347 kts 225°
2026-04-11 09:09 23.79020 113.63400 19756 ft 346 kts 225°
2026-04-11 09:10 23.77229 113.61643 19488 ft 345 kts 225°
2026-04-11 09:10 23.75448 113.59903 19214 ft 343 kts 225°
2026-04-11 09:10 23.73739 113.58234 18941 ft 341 kts 225°
2026-04-11 09:10 23.71979 113.56515 18683 ft 338 kts 225°
2026-04-11 09:11 23.70224 113.54802 18417 ft 337 kts 225°
2026-04-11 09:11 23.68476 113.53099 18151 ft 336 kts 225°
2026-04-11 09:11 23.66737 113.51406 17862 ft 334 kts 225°
2026-04-11 09:11 23.65005 113.49717 17550 ft 332 kts 225°
2026-04-11 09:12 23.63290 113.48043 17248 ft 331 kts 225°
2026-04-11 09:12 23.61581 113.46376 16940 ft 328 kts 225°
2026-04-11 09:12 23.59887 113.44727 16653 ft 327 kts 225°
2026-04-11 09:12 23.58198 113.43086 16356 ft 324 kts 225°
2026-04-11 09:13 23.56523 113.41455 16065 ft 322 kts 224°
2026-04-11 09:13 23.54771 113.39931 15775 ft 322 kts 219°
2026-04-11 09:13 23.52897 113.38641 15494 ft 324 kts 213°
2026-04-11 09:13 23.50870 113.37554 15208 ft 325 kts 207°
2026-04-11 09:14 23.48747 113.36695 14915 ft 326 kts 204°
2026-04-11 09:14 23.46616 113.35889 14649 ft 323 kts 204°
2026-04-11 09:14 23.44496 113.35081 14373 ft 322 kts 204°
2026-04-11 09:14 23.42387 113.34274 14099 ft 320 kts 204°
2026-04-11 09:15 23.40293 113.33472 13819 ft 318 kts 204°
2026-04-11 09:15 23.38210 113.32674 13554 ft 317 kts 204°
2026-04-11 09:15 23.36140 113.31884 13249 ft 315 kts 204°
2026-04-11 09:15 23.34071 113.31098 12936 ft 314 kts 204°
2026-04-11 09:16 23.32010 113.30316 12643 ft 313 kts 204°
2026-04-11 09:16 23.29952 113.29537 12343 ft 313 kts 203°
2026-04-11 09:16 23.27898 113.28760 12046 ft 312 kts 203°
2026-04-11 09:16 23.25848 113.27982 11752 ft 311 kts 203°
2026-04-11 09:17 23.23830 113.27215 11461 ft 311 kts 203°
2026-04-11 09:17 23.21810 113.26450 11174 ft 303 kts 203°
2026-04-11 09:17 23.19846 113.25708 10879 ft 295 kts 203°
2026-04-11 09:17 23.17932 113.24982 10608 ft 288 kts 203°
2026-04-11 09:18 23.16062 113.24272 10327 ft 282 kts 202°
2026-04-11 09:18 23.14225 113.23576 10053 ft 277 kts 202°
2026-04-11 09:18 23.12425 113.22895 9814 ft 272 kts 202°
2026-04-11 09:18 23.10619 113.22275 9580 ft 274 kts 197°
2026-04-11 09:19 23.08863 113.21968 9344 ft 276 kts 188°
2026-04-11 09:19 23.06936 113.21968 9095 ft 278 kts 179°
2026-04-11 09:19 23.05021 113.22320 8846 ft 281 kts 170°
2026-04-11 09:19 23.03160 113.23019 8596 ft 285 kts 161°
2026-04-11 09:20 23.01413 113.24053 8349 ft 288 kts 151°
2026-04-11 09:20 22.99841 113.25411 8105 ft 291 kts 141°
2026-04-11 09:20 22.98494 113.27063 7850 ft 295 kts 131°
2026-04-11 09:20 22.97411 113.28975 7630 ft 299 kts 122°
2026-04-11 09:21 22.96463 113.30984 7384 ft 298 kts 122°
2026-04-11 09:21 22.95516 113.32975 7150 ft 296 kts 122°
2026-04-11 09:21 22.94572 113.34952 6919 ft 295 kts 123°
2026-04-11 09:21 22.93629 113.36922 6685 ft 293 kts 123°
2026-04-11 09:22 22.92701 113.38860 6452 ft 293 kts 123°
2026-04-11 09:22 22.91686 113.40759 6230 ft 288 kts 130°
2026-04-11 09:22 22.90463 113.42451 5985 ft 275 kts 139°
2026-04-11 09:22 22.89144 113.43849 5748 ft 263 kts 146°
2026-04-11 09:23 22.87721 113.45027 5508 ft 252 kts 153°
2026-04-11 09:23 22.86247 113.45963 5271 ft 240 kts 160°
2026-04-11 09:23 22.84750 113.46676 5031 ft 231 kts 166°
2026-04-11 09:23 22.83232 113.47192 4796 ft 227 kts 172°
2026-04-11 09:24 22.81692 113.47525 4579 ft 224 kts 178°
2026-04-11 09:24 22.80147 113.47669 4435 ft 222 kts 184°
2026-04-11 09:24 22.78608 113.47632 4313 ft 220 kts 189°
2026-04-11 09:24 22.77080 113.47511 4191 ft 219 kts 188°
2026-04-11 09:25 22.75566 113.47396 4070 ft 218 kts 188°
2026-04-11 09:25 22.74060 113.47286 3977 ft 217 kts 188°
2026-04-11 09:25 22.72557 113.47176 3919 ft 216 kts 188°
2026-04-11 09:25 22.71056 113.47067 3921 ft 214 kts 188°
2026-04-11 09:26 22.69621 113.46965 3920 ft 199 kts 188°
2026-04-11 09:26 22.68264 113.46868 3921 ft 197 kts 188°
2026-04-11 09:26 22.66897 113.46765 3922 ft 197 kts 188°
2026-04-11 09:26 22.65530 113.46664 3919 ft 197 kts 186°
2026-04-11 09:27 22.64686 113.46715 3924 ft 200 kts 176°
2026-04-11 09:27 22.63602 113.47045 3923 ft 206 kts 162°
2026-04-11 09:27 22.62367 113.47868 3924 ft 214 kts 145°
2026-04-11 09:27 22.61394 113.49117 3923 ft 222 kts 127°
2026-04-11 09:28 22.60833 113.50697 3926 ft 230 kts 106°
2026-04-11 09:28 22.60730 113.52457 3922 ft 236 kts 97°
2026-04-11 09:28 22.60967 113.54217 3930 ft 242 kts 71°
2026-04-11 09:28 22.61918 113.55722 3925 ft 247 kts 40°
2026-04-11 09:29 22.63413 113.56594 3933 ft 244 kts
2026-04-11 09:29 22.65077 113.56742 3926 ft 239 kts 356°
2026-04-11 09:29 22.66738 113.56783 3929 ft 239 kts 357°
2026-04-11 09:29 22.68402 113.56835 3931 ft 239 kts 357°
2026-04-11 09:30 22.70052 113.56890 3927 ft 233 kts 357°
2026-04-11 09:30 22.71617 113.56945 3930 ft 218 kts 357°
2026-04-11 09:30 22.73127 113.56997 3929 ft 217 kts 356°
2026-04-11 09:30 22.74641 113.57047 3933 ft 218 kts 356°
2026-04-11 09:31 22.76156 113.57094 3911 ft 218 kts 356°
2026-04-11 09:31 22.77658 113.57139 3813 ft 219 kts 356°
2026-04-11 09:31 22.79200 113.57185 3714 ft 220 kts 357°
2026-04-11 09:31 22.80718 113.57240 3622 ft 218 kts
2026-04-11 09:32 22.82173 113.57647 3519 ft 221 kts 24°
2026-04-11 09:32 22.83451 113.58561 3432 ft 221 kts 45°
2026-04-11 09:32 22.84382 113.59867 3337 ft 217 kts 66°
2026-04-11 09:32 22.85060 113.61318 3251 ft 215 kts 67°
2026-04-11 09:33 22.85743 113.62758 3158 ft 214 kts 66°
2026-04-11 09:33 22.86431 113.64195 3063 ft 213 kts 66°
2026-04-11 09:33 22.86968 113.65666 2956 ft 206 kts 88°
2026-04-11 09:33 22.86908 113.67164 2864 ft 195 kts 113°
2026-04-11 09:34 22.86327 113.68427 2770 ft 182 kts 137°
2026-04-11 09:34 22.85392 113.69294 2674 ft 174 kts 157°
2026-04-11 09:34 22.84302 113.69878 2581 ft 176 kts 158°
2026-04-11 09:34 22.83211 113.70470 2482 ft 175 kts 158°
2026-04-11 09:35 22.82130 113.71063 2401 ft 174 kts 157°
2026-04-11 09:35 22.81097 113.71638 2355 ft 159 kts 158°
2026-04-11 09:35 22.80186 113.72143 2304 ft 137 kts 158°
2026-04-11 09:35 22.79333 113.72610 2304 ft 137 kts 158°
2026-04-11 09:36 22.78479 113.73079 2300 ft 137 kts 158°
2026-04-11 09:36 22.77903 113.73395 2307 ft 137 kts 158°
2026-04-11 09:36 22.77033 113.73872 2302 ft 137 kts 158°
2026-04-11 09:36 22.76181 113.74341 2243 ft 138 kts 158°
2026-04-11 09:37 22.75337 113.74805 2148 ft 136 kts 158°
2026-04-11 09:37 22.74496 113.75266 1985 ft 135 kts 158°
2026-04-11 09:37 22.73658 113.75726 1806 ft 135 kts 158°
2026-04-11 09:37 22.72821 113.76186 1643 ft 134 kts 158°
2026-04-11 09:38 22.71984 113.76645 1461 ft 135 kts 158°
2026-04-11 09:38 22.71149 113.77103 1286 ft 135 kts 157°
2026-04-11 09:38 22.70314 113.77561 1109 ft 134 kts 157°
2026-04-11 09:38 22.69478 113.78019 933 ft 135 kts 158°
2026-04-11 09:39 22.68633 113.78470 795 ft 137 kts 157°
2026-04-11 09:39 22.67792 113.78946 612 ft 138 kts 155°
2026-04-11 09:39 22.66938 113.79409 408 ft 137 kts 154°
2026-04-11 09:39 22.66102 113.79876 256 ft 136 kts 155°
2026-04-11 09:40 22.65267 113.80337 59 ft 135 kts 154°
2026-04-11 09:40 22.64469 113.80769 24 ft 116 kts 154°
2026-04-11 09:40 22.63978 113.81036 23 ft 36 kts 153°
2026-04-11 09:40 22.63771 113.81149 25 ft 32 kts 153°
2026-04-11 09:41 22.63607 113.81236 22 ft 22 kts 162°
2026-04-11 09:41 22.63454 113.81255 21 ft 23 kts 182°
2026-04-11 09:41 22.63375 113.81251 21 ft 10 kts 182°
2026-04-11 09:41 22.63294 113.81247 21 ft 13 kts 182°
2026-04-11 09:42 22.63203 113.81244 21 ft 12 kts 170°
2026-04-11 09:42 22.63143 113.81241 21 ft 9 kts 229°
2026-04-11 09:42 22.63122 113.81170 22 ft 11 kts 262°
2026-04-11 09:43 22.63064 113.81065 24 ft 8 kts 197°
2026-04-11 09:43 22.63023 113.81051 22 ft 6 kts 198°
2026-04-11 09:43 22.63020 113.81049 22 ft 0 kts 198°